Terug naar catalogus

STARLINK-35935

ActiefCommunicatieVLEO
NORAD 66527·PAYLOAD·🇺🇸 United States

Gelanceerd Nov 19, 2025 vanaf Cape Canaveral Space Force Station

Loading…

Volgende Passages (komende 24 uur)

TLE

VersSource: CelesTrak SupGP

Epoch: Sep 15, 2026, 03:32 UTC

1 66527C 25265M   26258.14770833 -.00002959  00000+0 -10715-3 0  2583
2 66527  43.0013 288.1552 0001286 261.1980 202.0314 15.27583457    14

Volg STARLINK-35935 in realtime met AllMySat

Download on the App Store